Friday Harbor, WA

11:21 AM PDT on April 28, 2017 (GMT -0700)
Friday Harbor

Weather History for KFHR - December, 2013

Change the Weather History Date:

Sunday, December 1, 2013

  Actual Average Record
Temperature  
Mean Temperature 45 °F -  
Max Temperature 51 °F 45 °F 51 °F (2000)
Min Temperature 39 °F 36 °F 21 °F (2014)
Degree Days  
Heating Degree Days 20    
Moisture  
Dew Point 44 °F    
Average Humidity 89    
Maximum Humidity 100    
Minimum Humidity 70    
Precipitation  
Precipitation 0.04 in - - ()
Sea Level Pressure  
Sea Level Pressure 29.83 in    
Wind  
Wind Speed 8 mph (SSW)    
Max Wind Speed 17 mph    
Max Gust Speed 26 mph    
Visibility 9 miles    
Events Rain    
Averages and records for this station are not official NWS values.
T = Trace of Precipitation, MM = Missing Value Source: NWS Daily Summary

Daily Weather History Graph

Daily Weather History Graph

Search for Another Location

Airport or City:

Trip Planner

Search our weather history database for the weather conditions in past years. The results will help you decide how hot, cold, wet, or windy it might be!

Date:

Astronomy

Dec. 01, 2013 Rise Set
Actual Time 7:43 AM PST 4:19 PM PST
Civil Twilight 7:07 AM PST 4:55 PM PST
Nautical Twilight 6:27 AM PST 5:34 PM PST
Astronomical Twilight 5:50 AM PST 6:12 PM PST
Moon 6:01 AM PST (12/1) 3:38 PM PST (12/1)
Length of Visible Light 9h 47m
Length of Day
8h 35m
Waning Crescent, 2% of the Moon is Illuminated
Dec 1
Waning Crescent
Dec 2
New
Dec 9
First Quarter
Dec 17
Full
Dec 25
Last Quarter

Hourly Weather History & Observations

Time (PST) Temp. Windchill Dew Point Humidity Pressure Visibility Wind Dir Wind Speed Gust Speed Precip Events Conditions
12:53 AM 48.0 °F - 46.0 °F 93% 30.03 in 9.0 mi East 9.2 mph - 0.00 in Rain Light Rain
1:53 AM 48.0 °F - 46.9 °F 96% 29.97 in 8.0 mi East 4.6 mph - 0.00 in Rain Light Rain
2:53 AM 48.0 °F - 46.0 °F 93% 29.91 in 10.0 mi East 8.1 mph - 0.00 in Rain Light Rain
3:53 AM 48.0 °F - 46.9 °F 96% 29.88 in 9.0 mi SE 5.8 mph - 0.00 in Rain Light Rain
4:25 AM 48.0 °F - 46.0 °F 93% 29.85 in 8.0 mi SE 8.1 mph - 0.00 in Rain Light Rain
4:46 AM 48.0 °F - 46.0 °F 93% 29.84 in 10.0 mi SSE 10.4 mph 17.3 mph 0.00 in Rain Light Rain
4:53 AM 48.0 °F - 46.0 °F 93% 29.84 in 10.0 mi SSE 9.2 mph - 0.00 in   Overcast
5:07 AM 46.9 °F - 46.0 °F 97% 29.82 in 10.0 mi SSE 6.9 mph - 0.00 in Rain Light Rain
5:20 AM 46.9 °F - 46.0 °F 97% 29.81 in 10.0 mi SSE 8.1 mph - 0.00 in   Overcast
5:53 AM 46.9 °F - 46.0 °F 97% 29.83 in 10.0 mi South 3.5 mph - 0.00 in   Overcast
6:20 AM 46.9 °F - 46.0 °F 97% 29.82 in 1.8 mi South 3.5 mph - 0.00 in Rain Light Rain
6:27 AM 46.9 °F - 46.0 °F 97% 29.83 in 2.0 mi SSE 4.6 mph - 0.00 in Rain Light Rain
6:43 AM 46.9 °F - 46.0 °F 97% 29.83 in 3.0 mi SSE 5.8 mph - 0.00 in   Overcast
6:53 AM 46.9 °F - 46.9 °F 100% 29.83 in 4.0 mi Calm Calm - 0.00 in   Overcast
7:11 AM 48.9 °F - 46.9 °F 93% 29.84 in 10.0 mi SW 9.2 mph - N/A   Overcast
7:53 AM 50.0 °F - 48.0 °F 93% 29.84 in 10.0 mi SW 11.5 mph 21.9 mph N/A   Mostly Cloudy
8:01 AM 50.0 °F - 48.0 °F 93% 29.84 in 10.0 mi SW 11.5 mph 21.9 mph N/A   Scattered Clouds
8:53 AM 50.0 °F - 46.9 °F 89% 29.87 in 10.0 mi SW 13.8 mph 21.9 mph N/A   Mostly Cloudy
9:53 AM 50.0 °F - 46.9 °F 89% 29.87 in 10.0 mi SW 13.8 mph 23.0 mph N/A   Scattered Clouds
10:53 AM 51.1 °F - 46.9 °F 86% 29.86 in 10.0 mi SW 17.3 mph 25.3 mph N/A   Scattered Clouds
11:53 AM 50.0 °F - 45.0 °F 83% 29.86 in 10.0 mi SW 8.1 mph 16.1 mph N/A   Overcast
12:53 PM 50.0 °F - 45.0 °F 83% 29.83 in 10.0 mi SSW 12.7 mph 21.9 mph 0.00 in Rain Light Rain
1:53 PM 50.0 °F - 46.0 °F 86% 29.82 in 10.0 mi SW 10.4 mph 24.2 mph 0.00 in   Overcast
2:53 PM 50.0 °F - 45.0 °F 83% 29.81 in 10.0 mi SW 11.5 mph 21.9 mph 0.00 in   Mostly Cloudy
3:53 PM 50.0 °F - 44.1 °F 80% 29.79 in 9.0 mi Variable 6.9 mph - 0.00 in Rain Light Rain
4:04 PM 48.9 °F - 45.0 °F 86% 29.79 in 5.0 mi WSW 8.1 mph - 0.01 in Rain Light Rain
4:27 PM 46.9 °F - 44.1 °F 90% 29.79 in 6.0 mi Variable 4.6 mph 16.1 mph 0.03 in Rain Light Rain
4:53 PM 46.9 °F - 44.1 °F 90% 29.77 in 10.0 mi SW 6.9 mph - 0.04 in   Overcast
5:53 PM 46.0 °F 43.9 °F 42.1 °F 86% 29.77 in 10.0 mi Variable 4.6 mph - 0.00 in Rain Light Rain
6:53 PM 44.1 °F 40.1 °F 37.9 °F 79% 29.75 in 10.0 mi Variable 6.9 mph - 0.00 in   Mostly Cloudy
7:53 PM 44.1 °F 39.5 °F 37.9 °F 79% 29.76 in 10.0 mi WSW 8.1 mph - 0.00 in   Overcast
8:53 PM 44.1 °F 39.0 °F 37.0 °F 76% 29.76 in 10.0 mi SW 9.2 mph - N/A   Overcast
9:53 PM 42.1 °F 36.1 °F 33.1 °F 70% 29.77 in 10.0 mi SW 10.4 mph - N/A   Mostly Cloudy
10:53 PM 39.9 °F 32.5 °F 32.0 °F 73% 29.79 in 10.0 mi SW 12.7 mph 26.5 mph N/A   Scattered Clouds
11:53 PM 39.9 °F 32.1 °F 34.0 °F 79% 29.80 in 10.0 mi SW 13.8 mph 25.3 mph N/A   Clear